星链-4422 (STARLINK-4422 )

导读

STARLINK-4422是美国SpaceX公司星链(Starlink)项目的卫星,于2022年8月28日发射升空,属于星链星座组网卫星,旨在为全球提供低延迟、高速率的宽带互联网服务。作为星链集团中一员,该卫星运行在近地轨道,支撑起覆盖全球的卫星互联网星座布局,服务全球多地的网络接入需求。

基本信息
目录编号:
53639
目录名称:
STARLINK-4422
国际标识:
2022-104BD
轨道中心:
EARTH
卫星名称:
星链-4422
卫星全名:
星链-4422 (STARLINK-4422 )
卫星状态:
在轨 (已飞行1468 天)
发射日期:
2022-08-28 UTC
国别 :
美国 (US)
星等 :
--
轨道信息
数据来源 国际轨道数据
星历时间: 2026-09-04T12:01:45+0800
5小时前
查看轨道信息
半长轴: 6864.693km
偏心率: 0.0001693
轨道倾角: 53.211°
近地点辐角 87.363°
升交点赤经 112.272°
平近点角 272.757°
近地点: 485.393km
远地点: 487.719km
周期: 94.339分钟
每日圈数: 15.264099
详细信息
固有亮度:
5
最大亮度:
2.5
卫星平台:
Starlink v1.5
覆盖范围:
全球
运营商:
太空探索技术公司
运营商所在国:
美国
制造商(研发单位):
太空探索技术公司
制造商所在国:
美国
使用方式:
暂无
卫星简介
星链(Starlink)计划是由太空探索技术公司(SpaceX)提出的一个巨型低轨卫星互联网星座项目,计划在2019年至2024年间在太空搭建由约1.2万颗卫星组成的“星链”网络,其中1584颗将部署在地球上空550千米处的近地轨道,并从2020年开始工作。该卫星仍在工作。
2D轨道图
3D轨道图
轨道高度分析图
轨道倾角分析图
轨道综合分析图
查看轨道综合分析图
交会数据列表
事件ID 空间交会对象 最接近时刻(TCA) 交会距离 交会风险概率(CRP) 交会风险指数(CRI) 操作
CDM_260827-234805-363905-611921
2026-08-27T
23:48:30+0000
1.171 km
极远距离
1.155421E-5 中风险 0.56
CDM_260829-194505-363905-988521
2026-08-29T
19:45:07+0000
1.768 km
极远距离
2.725088E-6 低风险 0.44
CDM_260830-155105-363906-657721
2026-08-30T
15:51:44+0000
1.773 km
极远距离
1.948134E-6 低风险 0.41
CDM_260904-201705-363905-690422
2026-09-04T
20:17:07+0000
2.732 km
极远距离
6.501401E-7 极低风险 0.31
CDM_260905-085605-363905-840721
2026-09-05T
08:56:46+0000
2.953 km
极远距离
4.467654E-7 极低风险 0.28